Time,TemperatureF,DewpointF,PressureIn,WindDirection,WindDirectionDegrees,WindSpeedMPH,WindSpeedGustMPH,Humidity,HourlyPrecipIn,Conditions,Clouds,dailyrainin,SoftwareType,DateUTC
2013-01-20 00:04:00,35.6,33.5,29.99,NNE,23,0.0,0.0,92,0.00,,,0.00,WUHU216HW,2013-01-20 08:04:00,
2013-01-20 00:09:00,35.6,33.5,29.99,NE,45,0.0,0.7,92,0.00,,,0.00,WUHU216HW,2013-01-20 08:09:00,
2013-01-20 00:14:00,35.6,33.5,29.99,North,6,0.5,1.1,92,0.00,,,0.00,WUHU216HW,2013-01-20 08:14:00,
2013-01-20 00:19:00,35.6,33.5,29.98,NNE,23,0.0,1.1,92,0.00,,,0.00,WUHU216HW,2013-01-20 08:19:00,
2013-01-20 00:24:00,35.8,33.7,29.99,NNE,23,0.4,0.4,92,0.00,,,0.00,WUHU216HW,2013-01-20 08:24:00,
2013-01-20 00:29:00,35.8,33.7,29.99,NNE,15,1.2,1.8,92,0.00,,,0.00,WUHU216HW,2013-01-20 08:29:00,
2013-01-20 00:34:00,35.8,33.7,29.99,NE,45,0.2,1.8,92,0.00,,,0.00,WUHU216HW,2013-01-20 08:34:00,
2013-01-20 00:39:00,35.6,33.5,29.99,NE,45,1.3,1.3,92,0.00,,,0.00,WUHU216HW,2013-01-20 08:39:00,
2013-01-20 00:44:00,35.6,33.5,30.00,NNE,12,0.3,1.3,92,0.00,,,0.00,WUHU216HW,2013-01-20 08:44:00,
2013-01-20 00:49:00,35.6,33.5,29.99,North,353,0.3,1.3,92,0.00,,,0.00,WUHU216HW,2013-01-20 08:49:00,
2013-01-20 00:54:00,35.6,33.5,30.00,NNE,23,1.1,1.8,92,0.00,,,0.00,WUHU216HW,2013-01-20 08:54:00,
2013-01-20 00:59:00,35.6,33.5,30.00,NNE,23,1.3,1.8,92,0.00,,,0.00,WUHU216HW,2013-01-20 08:59:00,
2013-01-20 01:04:00,35.6,33.5,29.99,North,352,0.7,2.0,92,0.00,,,0.00,WUHU216HW,2013-01-20 09:04:00,
2013-01-20 01:09:00,35.6,33.5,29.99,NNE,23,0.6,2.0,92,0.00,,,0.00,WUHU216HW,2013-01-20 09:09:00,
2013-01-20 01:14:00,35.6,33.5,29.99,NNE,23,0.2,0.9,92,0.00,,,0.00,WUHU216HW,2013-01-20 09:14:00,
2013-01-20 01:19:00,35.6,33.5,29.99,NNE,23,0.3,0.7,92,0.00,,,0.00,WUHU216HW,2013-01-20 09:19:00,
2013-01-20 01:24:00,35.6,33.5,29.99,NE,45,0.7,1.6,92,0.00,,,0.00,WUHU216HW,2013-01-20 09:24:00,
2013-01-20 01:29:00,35.6,33.8,30.00,North,0,0.3,1.6,93,0.00,,,0.00,WUHU216HW,2013-01-20 09:29:00,
2013-01-20 01:34:00,35.6,33.5,30.00,ENE,68,0.0,1.3,92,0.00,,,0.00,WUHU216HW,2013-01-20 09:34:00,
2013-01-20 01:39:00,35.6,33.5,30.00,NNE,23,0.9,1.1,92,0.00,,,0.00,WUHU216HW,2013-01-20 09:39:00,
2013-01-20 01:44:00,35.6,33.5,29.99,North,11,1.0,1.3,92,0.00,,,0.00,WUHU216HW,2013-01-20 09:44:00,
2013-01-20 01:49:00,35.6,33.5,30.00,North,0,1.8,1.8,92,0.00,,,0.00,WUHU216HW,2013-01-20 09:49:00,
2013-01-20 01:54:00,35.6,33.8,30.00,NNE,23,1.1,1.8,93,0.00,,,0.00,WUHU216HW,2013-01-20 09:54:00,
2013-01-20 01:59:00,35.6,33.8,30.00,NNE,21,1.3,2.5,93,0.00,,,0.00,WUHU216HW,2013-01-20 09:59:00,
2013-01-20 02:04:00,35.6,33.8,30.00,North,0,0.2,2.5,93,0.00,,,0.00,WUHU216HW,2013-01-20 10:04:00,
2013-01-20 02:09:00,35.6,33.8,30.00,SE,135,0.2,1.1,93,0.00,,,0.00,WUHU216HW,2013-01-20 10:09:00,
2013-01-20 02:14:00,35.6,33.8,30.00,NNE,23,0.2,0.7,93,0.00,,,0.00,WUHU216HW,2013-01-20 10:14:00,
2013-01-20 02:19:00,35.6,33.8,30.00,NNE,23,1.1,1.8,93,0.00,,,0.00,WUHU216HW,2013-01-20 10:19:00,
2013-01-20 02:24:00,35.6,33.8,30.00,NE,45,1.1,1.8,93,0.00,,,0.00,WUHU216HW,2013-01-20 10:24:00,
2013-01-20 02:29:00,35.6,33.8,30.01,NE,45,0.0,1.6,93,0.00,,,0.00,WUHU216HW,2013-01-20 10:29:00,
2013-01-20 02:34:00,35.6,33.8,30.01,North,0,2.2,2.2,93,0.00,,,0.00,WUHU216HW,2013-01-20 10:34:00,
2013-01-20 02:39:00,35.5,33.6,30.01,ENE,68,0.7,2.2,93,0.00,,,0.00,WUHU216HW,2013-01-20 10:39:00,
2013-01-20 02:44:00,35.5,33.6,30.01,NNE,23,1.6,3.1,93,0.00,,,0.00,WUHU216HW,2013-01-20 10:44:00,
2013-01-20 02:49:00,35.5,33.6,30.00,NNE,23,1.6,3.1,93,0.00,,,0.00,WUHU216HW,2013-01-20 10:49:00,
2013-01-20 02:54:00,35.5,33.6,30.00,NNE,23,0.0,1.6,93,0.00,,,0.00,WUHU216HW,2013-01-20 10:54:00,
2013-01-20 02:59:00,35.5,33.6,30.00,NNE,23,0.9,1.6,93,0.00,,,0.00,WUHU216HW,2013-01-20 10:59:00,
2013-01-20 03:04:00,35.5,33.6,30.00,NNE,24,0.8,1.8,93,0.00,,,0.00,WUHU216HW,2013-01-20 11:04:00,
2013-01-20 03:09:00,35.5,33.6,30.00,NNE,26,1.1,1.8,93,0.00,,,0.00,WUHU216HW,2013-01-20 11:09:00,
2013-01-20 03:14:00,35.5,33.6,30.00,North,0,1.1,1.3,93,0.00,,,0.00,WUHU216HW,2013-01-20 11:14:00,
2013-01-20 03:19:00,35.5,33.6,30.00,East,90,0.4,2.2,93,0.00,,,0.00,WUHU216HW,2013-01-20 11:19:00,
2013-01-20 03:24:00,35.3,33.4,30.00,NNE,28,1.3,2.2,93,0.00,,,0.00,WUHU216HW,2013-01-20 11:24:00,
2013-01-20 03:29:00,35.3,33.4,30.00,NNE,23,0.0,1.8,93,0.00,,,0.00,WUHU216HW,2013-01-20 11:29:00,
2013-01-20 03:34:00,35.3,33.4,30.00,NNE,23,1.3,1.8,93,0.00,,,0.00,WUHU216HW,2013-01-20 11:34:00,
2013-01-20 03:39:00,35.3,33.4,30.00,NNE,23,0.9,1.8,93,0.00,,,0.00,WUHU216HW,2013-01-20 11:39:00,
2013-01-20 03:44:00,35.1,33.2,30.00,North,0,0.0,1.8,93,0.00,,,0.00,WUHU216HW,2013-01-20 11:44:00,
2013-01-20 03:49:00,35.1,33.2,30.00,NNE,27,0.8,1.8,93,0.00,,,0.00,WUHU216HW,2013-01-20 11:49:00,
2013-01-20 03:54:00,35.1,33.2,30.00,NE,45,0.7,1.3,93,0.00,,,0.00,WUHU216HW,2013-01-20 11:54:00,
2013-01-20 03:59:00,34.9,33.0,29.99,ENE,67,0.9,2.9,93,0.00,,,0.00,WUHU216HW,2013-01-20 11:59:00,
2013-01-20 04:04:00,35.1,33.2,30.00,North,358,0.7,2.9,93,0.00,,,0.00,WUHU216HW,2013-01-20 12:04:00,
2013-01-20 04:09:00,35.1,33.2,30.00,North,0,1.8,2.5,93,0.00,,,0.00,WUHU216HW,2013-01-20 12:09:00,
2013-01-20 04:14:00,34.9,33.0,29.99,NNE,13,0.8,2.5,93,0.00,,,0.00,WUHU216HW,2013-01-20 12:14:00,
2013-01-20 04:19:00,34.9,33.0,29.99,NE,40,0.7,4.0,93,0.00,,,0.00,WUHU216HW,2013-01-20 12:19:00,
2013-01-20 04:24:00,34.9,33.0,30.00,NNE,22,1.0,4.0,93,0.00,,,0.00,WUHU216HW,2013-01-20 12:24:00,
2013-01-20 04:29:00,34.9,33.0,30.00,ENE,61,0.5,1.6,93,0.00,,,0.00,WUHU216HW,2013-01-20 12:29:00,
2013-01-20 04:34:00,34.9,33.0,29.99,NNE,22,1.5,1.8,93,0.00,,,0.00,WUHU216HW,2013-01-20 12:34:00,
2013-01-20 04:39:00,34.9,33.0,30.00,NNE,23,1.8,3.1,93,0.00,,,0.00,WUHU216HW,2013-01-20 12:39:00,
2013-01-20 04:44:00,34.9,33.0,30.00,NE,50,0.7,3.1,93,0.00,,,0.00,WUHU216HW,2013-01-20 12:44:00,
2013-01-20 04:49:00,34.7,32.9,30.00,NNE,23,0.4,1.8,93,0.00,,,0.00,WUHU216HW,2013-01-20 12:49:00,
2013-01-20 04:54:00,34.7,32.9,29.99,NNE,23,0.6,2.0,93,0.00,,,0.00,WUHU216HW,2013-01-20 12:54:00,
2013-01-20 04:59:00,34.7,32.9,29.99,ENE,68,1.3,2.0,93,0.00,,,0.00,WUHU216HW,2013-01-20 12:59:00,
2013-01-20 05:04:00,34.6,32.7,29.99,NNE,23,2.5,3.4,93,0.00,,,0.00,WUHU216HW,2013-01-20 13:04:00,
2013-01-20 05:09:00,34.6,32.7,29.99,NNE,23,1.1,3.4,93,0.00,,,0.00,WUHU216HW,2013-01-20 13:09:00,
2013-01-20 05:14:00,34.4,32.5,29.99,NNE,18,1.8,3.1,93,0.00,,,0.00,WUHU216HW,2013-01-20 13:14:00,
2013-01-20 05:19:00,34.4,32.5,29.99,NNE,24,1.6,3.1,93,0.00,,,0.00,WUHU216HW,2013-01-20 13:19:00,
2013-01-20 05:24:00,34.2,32.3,29.99,NNE,29,0.9,2.2,93,0.00,,,0.00,WUHU216HW,2013-01-20 13:24:00,
2013-01-20 05:29:00,34.2,32.3,29.99,West,280,1.0,1.1,93,0.00,,,0.00,WUHU216HW,2013-01-20 13:29:00,
2013-01-20 05:34:00,34.2,32.3,29.99,North,0,0.4,1.1,93,0.00,,,0.00,WUHU216HW,2013-01-20 13:34:00,
2013-01-20 05:39:00,34.2,32.3,29.99,North,0,0.6,1.8,93,0.00,,,0.00,WUHU216HW,2013-01-20 13:39:00,
2013-01-20 05:44:00,34.2,32.3,29.99,NE,45,2.2,2.7,93,0.00,,,0.00,WUHU216HW,2013-01-20 13:44:00,
2013-01-20 05:49:00,34.2,32.3,29.99,NNE,23,2.2,2.7,93,0.00,,,0.00,WUHU216HW,2013-01-20 13:49:00,
2013-01-20 05:54:00,34.0,32.1,29.99,NNE,19,1.6,4.0,93,0.00,,,0.00,WUHU216HW,2013-01-20 13:54:00,
2013-01-20 05:59:00,34.0,32.1,29.99,NE,45,1.8,4.0,93,0.00,,,0.00,WUHU216HW,2013-01-20 13:59:00,
2013-01-20 06:04:00,33.8,32.0,29.99,NE,49,0.9,2.5,93,0.00,,,0.00,WUHU216HW,2013-01-20 14:04:00,
2013-01-20 06:09:00,33.8,32.0,29.99,NE,50,0.8,1.8,93,0.00,,,0.00,WUHU216HW,2013-01-20 14:09:00,
2013-01-20 06:14:00,33.8,32.0,29.99,NNE,23,1.7,1.8,93,0.00,,,0.00,WUHU216HW,2013-01-20 14:14:00,
2013-01-20 06:19:00,33.8,32.0,29.99,NNE,12,0.6,1.8,93,0.00,,,0.00,WUHU216HW,2013-01-20 14:19:00,
2013-01-20 06:24:00,33.8,32.0,29.99,ENE,68,0.4,1.6,93,0.00,,,0.00,WUHU216HW,2013-01-20 14:24:00,
2013-01-20 06:29:00,33.8,32.0,29.99,NE,38,0.8,2.5,93,0.00,,,0.00,WUHU216HW,2013-01-20 14:29:00,
2013-01-20 06:34:00,33.8,32.0,29.99,NE,45,0.0,2.5,93,0.00,,,0.00,WUHU216HW,2013-01-20 14:34:00,
2013-01-20 06:39:00,33.8,32.0,29.99,North,0,0.2,0.2,93,0.00,,,0.00,WUHU216HW,2013-01-20 14:39:00,
2013-01-20 06:44:00,33.8,32.0,29.99,NE,48,0.9,1.1,93,0.00,,,0.00,WUHU216HW,2013-01-20 14:44:00,
2013-01-20 06:49:00,33.8,32.0,29.99,North,0,1.1,1.1,93,0.00,,,0.00,WUHU216HW,2013-01-20 14:49:00,
2013-01-20 06:54:00,33.8,32.0,29.99,NE,35,1.3,2.0,93,0.00,,,0.00,WUHU216HW,2013-01-20 14:54:00,
2013-01-20 06:59:00,34.0,32.1,29.99,NNE,12,1.2,2.0,93,0.00,,,0.00,WUHU216HW,2013-01-20 14:59:00,
2013-01-20 07:04:00,34.0,32.1,29.98,NNE,22,1.1,1.8,93,0.00,,,0.00,WUHU216HW,2013-01-20 15:04:00,
2013-01-20 07:09:00,34.0,32.1,29.98,East,90,0.4,1.1,93,0.00,,,0.00,WUHU216HW,2013-01-20 15:09:00,
2013-01-20 07:14:00,34.0,32.1,29.98,NE,45,0.0,0.4,93,0.00,,,0.00,WUHU216HW,2013-01-20 15:14:00,
2013-01-20 07:19:00,34.0,32.1,29.98,ENE,68,0.0,0.0,93,0.00,,,0.00,WUHU216HW,2013-01-20 15:19:00,
2013-01-20 07:24:00,34.0,32.1,29.99,SE,135,0.0,0.4,93,0.00,,,0.00,WUHU216HW,2013-01-20 15:24:00,
2013-01-20 07:29:00,34.0,32.1,29.99,NNE,23,1.0,1.8,93,0.00,,,0.00,WUHU216HW,2013-01-20 15:29:00,
2013-01-20 07:34:00,34.0,32.1,29.99,NE,39,0.4,1.8,93,0.00,,,0.00,WUHU216HW,2013-01-20 15:34:00,
2013-01-20 07:39:00,34.0,32.1,29.99,NNE,23,0.0,1.8,93,0.00,,,0.00,WUHU216HW,2013-01-20 15:39:00,
2013-01-20 07:44:00,34.0,32.1,29.99,NE,45,0.0,1.8,93,0.00,,,0.00,WUHU216HW,2013-01-20 15:44:00,
2013-01-20 07:50:00,34.0,32.1,29.99,NNE,23,0.2,0.2,93,0.00,,,0.00,WUHU216HW,2013-01-20 15:50:00,
2013-01-20 07:55:00,34.0,32.1,29.99,ENE,68,0.0,0.2,93,0.00,,,0.00,WUHU216HW,2013-01-20 15:55:00,
2013-01-20 08:00:00,34.0,32.1,29.99,North,0,0.0,0.4,93,0.00,,,0.00,WUHU216HW,2013-01-20 16:00:00,
2013-01-20 08:05:00,34.2,32.3,30.00,ENE,68,0.3,0.4,93,0.00,,,0.00,WUHU216HW,2013-01-20 16:05:00,
2013-01-20 08:10:00,34.2,32.3,29.99,NNE,23,0.0,0.4,93,0.00,,,0.00,WUHU216HW,2013-01-20 16:10:00,
2013-01-20 08:15:00,34.2,32.3,30.00,East,90,0.9,0.9,93,0.00,,,0.00,WUHU216HW,2013-01-20 16:15:00,
2013-01-20 08:20:00,34.2,32.3,29.99,ENE,68,0.0,0.9,93,0.00,,,0.00,WUHU216HW,2013-01-20 16:20:00,
2013-01-20 08:25:00,34.2,32.3,30.00,ENE,68,0.0,0.9,93,0.00,,,0.00,WUHU216HW,2013-01-20 16:25:00,
2013-01-20 08:30:00,34.0,32.1,30.00,East,90,0.2,0.4,93,0.00,,,0.00,WUHU216HW,2013-01-20 16:30:00,
2013-01-20 08:35:00,34.0,32.1,30.00,ESE,113,0.0,1.1,93,0.00,,,0.00,WUHU216HW,2013-01-20 16:35:00,
2013-01-20 08:40:00,34.0,32.1,30.00,East,90,0.0,1.1,93,0.00,,,0.00,WUHU216HW,2013-01-20 16:40:00,
2013-01-20 08:45:00,34.2,32.3,30.00,East,90,0.0,0.0,93,0.00,,,0.00,WUHU216HW,2013-01-20 16:45:00,
2013-01-20 08:50:00,34.2,32.3,30.00,East,90,0.0,0.0,93,0.00,,,0.00,WUHU216HW,2013-01-20 16:50:00,
2013-01-20 08:55:00,34.4,32.5,30.00,ESE,113,0.0,1.1,93,0.00,,,0.00,WUHU216HW,2013-01-20 16:55:00,
2013-01-20 09:00:00,34.4,32.5,30.00,ENE,68,0.7,1.1,93,0.00,,,0.00,WUHU216HW,2013-01-20 17:00:00,
2013-01-20 09:05:00,34.6,32.7,30.00,NE,45,0.3,0.7,93,0.00,,,0.00,WUHU216HW,2013-01-20 17:05:00,
2013-01-20 09:10:00,34.7,32.9,30.00,ESE,113,0.0,0.4,93,0.00,,,0.00,WUHU216HW,2013-01-20 17:10:00,
2013-01-20 09:15:00,34.9,33.0,30.00,East,90,0.7,0.7,93,0.00,,,0.00,WUHU216HW,2013-01-20 17:15:00,
2013-01-20 09:20:00,34.9,33.0,30.00,North,0,1.1,1.8,93,0.00,,,0.00,WUHU216HW,2013-01-20 17:20:00,
2013-01-20 09:25:00,35.1,33.2,30.00,NE,45,1.3,1.8,93,0.00,,,0.00,WUHU216HW,2013-01-20 17:25:00,
2013-01-20 09:30:00,35.1,33.2,30.00,NNE,23,1.1,1.3,93,0.00,,,0.00,WUHU216HW,2013-01-20 17:30:00,
2013-01-20 09:35:00,35.3,33.4,30.00,NE,34,0.6,2.0,93,0.00,,,0.00,WUHU216HW,2013-01-20 17:35:00,
2013-01-20 09:40:00,35.5,33.6,30.00,NE,50,0.3,2.0,93,0.00,,,0.00,WUHU216HW,2013-01-20 17:40:00,
2013-01-20 09:45:00,35.6,33.8,30.00,NNE,23,0.7,0.9,93,0.00,,,0.00,WUHU216HW,2013-01-20 17:45:00,
2013-01-20 09:50:00,35.6,33.8,30.00,NNE,33,0.6,1.1,93,0.00,,,0.00,WUHU216HW,2013-01-20 17:50:00,
2013-01-20 09:55:00,35.8,33.9,30.01,NE,45,1.3,1.3,93,0.00,,,0.00,WUHU216HW,2013-01-20 17:55:00,
2013-01-20 10:00:00,36.2,34.3,30.01,NNE,23,0.9,1.3,93,0.00,,,0.00,WUHU216HW,2013-01-20 18:00:00,
2013-01-20 10:05:00,36.2,34.3,30.01,North,352,0.8,1.8,93,0.00,,,0.00,WUHU216HW,2013-01-20 18:05:00,
2013-01-20 10:10:00,36.4,34.5,30.00,East,86,0.5,1.8,93,0.00,,,0.00,WUHU216HW,2013-01-20 18:10:00,
2013-01-20 10:15:00,36.4,34.5,30.00,NNE,23,1.0,1.3,93,0.00,,,0.00,WUHU216HW,2013-01-20 18:15:00,
2013-01-20 10:20:00,36.4,34.5,30.00,NNE,23,0.0,1.3,93,0.00,,,0.00,WUHU216HW,2013-01-20 18:20:00,
2013-01-20 10:25:00,36.5,34.7,30.00,NNE,23,0.4,1.3,93,0.00,,,0.00,WUHU216HW,2013-01-20 18:25:00,
2013-01-20 10:30:00,36.7,34.8,30.00,NNE,23,0.0,1.3,93,0.00,,,0.00,WUHU216HW,2013-01-20 18:30:00,
2013-01-20 10:35:00,36.9,35.0,30.00,North,0,0.2,1.1,93,0.00,,,0.00,WUHU216HW,2013-01-20 18:35:00,
2013-01-20 10:40:00,36.9,35.0,30.00,North,0,0.7,1.8,93,0.00,,,0.00,WUHU216HW,2013-01-20 18:40:00,
2013-01-20 10:45:00,37.1,35.2,30.00,NE,45,0.0,1.8,93,0.00,,,0.00,WUHU216HW,2013-01-20 18:45:00,
2013-01-20 10:50:00,37.1,35.2,30.00,North,11,1.0,1.6,93,0.00,,,0.00,WUHU216HW,2013-01-20 18:50:00,
2013-01-20 10:55:00,37.3,35.4,29.99,ESE,113,0.4,1.6,93,0.00,,,0.00,WUHU216HW,2013-01-20 18:55:00,
2013-01-20 11:00:00,37.1,34.9,29.99,ESE,113,0.0,0.4,92,0.00,,,0.00,WUHU216HW,2013-01-20 19:00:00,
2013-01-20 11:05:00,37.1,35.2,30.00,NNE,23,0.7,1.3,93,0.00,,,0.00,WUHU216HW,2013-01-20 19:05:00,
2013-01-20 11:10:00,37.3,35.4,29.99,North,0,1.4,2.2,93,0.00,,,0.00,WUHU216HW,2013-01-20 19:10:00,
2013-01-20 11:15:00,37.4,35.3,29.99,North,0,0.7,2.2,92,0.00,,,0.00,WUHU216HW,2013-01-20 19:15:00,
2013-01-20 11:20:00,37.4,35.3,29.99,NNE,23,0.0,1.6,92,0.00,,,0.00,WUHU216HW,2013-01-20 19:20:00,
2013-01-20 11:25:00,37.4,35.3,29.99,ENE,68,0.0,0.9,92,0.00,,,0.00,WUHU216HW,2013-01-20 19:25:00,
2013-01-20 11:30:00,37.8,35.6,29.99,ENE,68,0.0,0.0,92,0.00,,,0.00,WUHU216HW,2013-01-20 19:30:00,
2013-01-20 11:35:00,37.8,35.6,29.98,NNE,23,0.0,1.1,92,0.00,,,0.00,WUHU216HW,2013-01-20 19:35:00,
2013-01-20 11:40:00,37.8,35.6,29.98,NE,45,2.0,2.0,92,0.00,,,0.00,WUHU216HW,2013-01-20 19:40:00,
2013-01-20 11:45:00,38.0,35.8,29.98,NNE,30,1.2,2.0,92,0.00,,,0.00,WUHU216HW,2013-01-20 19:45:00,
2013-01-20 11:50:00,38.0,35.8,29.98,North,10,0.7,2.0,92,0.00,,,0.00,WUHU216HW,2013-01-20 19:50:00,
2013-01-20 11:55:00,38.0,35.8,29.97,North,353,1.1,1.8,92,0.00,,,0.00,WUHU216HW,2013-01-20 19:55:00,
2013-01-20 12:00:00,38.2,36.0,29.97,NE,44,1.7,1.8,92,0.00,,,0.00,WUHU216HW,2013-01-20 20:00:00,
2013-01-20 12:05:00,38.0,35.8,29.97,NNE,32,1.5,2.5,92,0.00,,,0.00,WUHU216HW,2013-01-20 20:05:00,
2013-01-20 12:10:00,38.2,36.0,29.97,NNE,18,1.0,3.4,92,0.00,,,0.00,WUHU216HW,2013-01-20 20:10:00,
2013-01-20 12:15:00,38.2,36.0,29.96,North,10,0.7,3.4,92,0.00,,,0.00,WUHU216HW,2013-01-20 20:15:00,
2013-01-20 12:20:00,38.2,36.0,29.96,North,358,1.4,2.5,92,0.00,,,0.00,WUHU216HW,2013-01-20 20:20:00,
2013-01-20 12:25:00,38.3,36.2,29.96,North,0,1.3,2.5,92,0.00,,,0.00,WUHU216HW,2013-01-20 20:25:00,
2013-01-20 12:30:00,38.3,36.2,29.96,NNE,23,1.3,2.5,92,0.00,,,0.00,WUHU216HW,2013-01-20 20:30:00,
2013-01-20 12:35:00,38.5,36.4,29.96,ENE,68,1.6,1.8,92,0.00,,,0.00,WUHU216HW,2013-01-20 20:35:00,
2013-01-20 12:40:00,38.7,36.5,29.96,North,7,1.1,1.8,92,0.00,,,0.00,WUHU216HW,2013-01-20 20:40:00,
2013-01-20 12:45:00,39.1,37.2,29.95,North,0,1.6,2.2,93,0.00,,,0.00,WUHU216HW,2013-01-20 20:45:00,
2013-01-20 12:50:00,39.2,37.4,29.95,NNE,23,2.0,3.1,93,0.00,,,0.00,WUHU216HW,2013-01-20 20:50:00,
2013-01-20 12:55:00,39.2,37.4,29.95,NE,45,0.4,3.1,93,0.00,,,0.00,WUHU216HW,2013-01-20 20:55:00,
2013-01-20 13:00:00,39.2,37.1,29.95,NNE,19,0.8,2.0,92,0.00,,,0.00,WUHU216HW,2013-01-20 21:00:00,
2013-01-20 13:05:00,39.2,37.1,29.94,NNE,23,1.1,1.3,92,0.00,,,0.00,WUHU216HW,2013-01-20 21:05:00,
2013-01-20 13:10:00,39.2,37.1,29.95,NNE,29,1.3,1.8,92,0.00,,,0.00,WUHU216HW,2013-01-20 21:10:00,
2013-01-20 13:15:00,39.4,37.3,29.95,NNE,23,1.1,1.8,92,0.00,,,0.00,WUHU216HW,2013-01-20 21:15:00,
2013-01-20 13:20:00,39.4,37.3,29.94,NE,40,1.9,3.4,92,0.00,,,0.00,WUHU216HW,2013-01-20 21:20:00,
2013-01-20 13:25:00,39.8,37.4,29.94,NE,34,0.3,3.4,91,0.00,,,0.00,WUHU216HW,2013-01-20 21:25:00,
2013-01-20 13:30:00,39.8,37.4,29.94,North,10,1.3,1.8,91,0.00,,,0.00,WUHU216HW,2013-01-20 21:30:00,
2013-01-20 13:35:00,40.0,37.5,29.94,North,0,1.1,3.1,91,0.00,,,0.00,WUHU216HW,2013-01-20 21:35:00,
2013-01-20 13:40:00,39.8,37.4,29.93,North,351,0.8,3.1,91,0.00,,,0.00,WUHU216HW,2013-01-20 21:40:00,
2013-01-20 13:45:00,40.0,37.5,29.93,NE,45,1.8,1.8,91,0.00,,,0.00,WUHU216HW,2013-01-20 21:45:00,
2013-01-20 13:50:00,40.0,37.5,29.93,NNE,19,1.8,3.4,91,0.00,,,0.00,WUHU216HW,2013-01-20 21:50:00,
2013-01-20 13:55:00,40.0,37.3,29.93,NNE,23,0.9,3.4,90,0.00,,,0.00,WUHU216HW,2013-01-20 21:55:00,
2013-01-20 14:00:00,39.8,37.1,29.93,NNE,23,1.3,1.8,90,0.00,,,0.00,WUHU216HW,2013-01-20 22:00:00,
2013-01-20 14:05:00,40.0,37.3,29.93,NNE,33,0.8,1.8,90,0.00,,,0.00,WUHU216HW,2013-01-20 22:05:00,
2013-01-20 14:10:00,39.8,37.1,29.93,WNW,293,0.0,1.8,90,0.00,,,0.00,WUHU216HW,2013-01-20 22:10:00,
2013-01-20 14:15:00,40.0,37.3,29.92,NNE,23,0.5,0.7,90,0.00,,,0.00,WUHU216HW,2013-01-20 22:15:00,
2013-01-20 14:20:00,40.3,37.6,29.92,NE,45,0.0,0.7,90,0.00,,,0.00,WUHU216HW,2013-01-20 22:20:00,
2013-01-20 14:25:00,40.5,37.8,29.93,North,0,0.4,1.3,90,0.00,,,0.00,WUHU216HW,2013-01-20 22:25:00,
2013-01-20 14:30:00,40.7,38.0,29.92,North,0,0.4,1.3,90,0.00,,,0.00,WUHU216HW,2013-01-20 22:30:00,
2013-01-20 14:35:00,40.3,37.6,29.92,NNE,32,1.5,1.8,90,0.00,,,0.00,WUHU216HW,2013-01-20 22:35:00,
2013-01-20 14:40:00,40.1,37.4,29.92,NNE,23,0.0,1.8,90,0.00,,,0.00,WUHU216HW,2013-01-20 22:40:00,
2013-01-20 14:45:00,40.0,37.3,29.92,NNE,23,0.0,1.6,90,0.00,,,0.00,WUHU216HW,2013-01-20 22:45:00,
2013-01-20 14:50:00,40.0,37.3,29.92,NNE,23,0.4,0.9,90,0.00,,,0.00,WUHU216HW,2013-01-20 22:50:00,
2013-01-20 14:55:00,40.0,37.3,29.92,North,0,0.0,0.9,90,0.00,,,0.00,WUHU216HW,2013-01-20 22:55:00,
2013-01-20 15:00:00,39.8,37.1,29.92,North,0,0.0,0.0,90,0.00,,,0.00,WUHU216HW,2013-01-20 23:00:00,
2013-01-20 15:05:00,39.8,37.1,29.92,North,0,0.0,0.0,90,0.00,,,0.00,WUHU216HW,2013-01-20 23:05:00,
2013-01-20 15:10:00,39.8,37.1,29.92,SE,135,0.0,0.0,90,0.00,,,0.00,WUHU216HW,2013-01-20 23:10:00,
2013-01-20 15:15:00,40.0,37.3,29.92,ESE,113,1.1,1.1,90,0.00,,,0.00,WUHU216HW,2013-01-20 23:15:00,
2013-01-20 15:20:00,40.0,37.0,29.92,East,90,0.8,1.1,89,0.00,,,0.00,WUHU216HW,2013-01-20 23:20:00,
2013-01-20 15:25:00,39.8,36.8,29.92,SE,135,0.0,1.1,89,0.00,,,0.00,WUHU216HW,2013-01-20 23:25:00,
2013-01-20 15:30:00,39.6,36.6,29.92,NNE,23,0.0,0.9,89,0.00,,,0.00,WUHU216HW,2013-01-20 23:30:00,
2013-01-20 15:35:00,39.4,36.5,29.92,SE,135,0.0,0.7,89,0.00,,,0.00,WUHU216HW,2013-01-20 23:35:00,
2013-01-20 15:40:00,39.4,36.5,29.92,NNE,23,0.0,0.9,89,0.00,,,0.00,WUHU216HW,2013-01-20 23:40:00,
2013-01-20 15:45:00,39.2,36.3,29.91,SE,135,0.6,0.9,89,0.00,,,0.00,WUHU216HW,2013-01-20 23:45:00,
2013-01-20 15:50:00,39.1,36.4,29.92,SE,135,0.0,0.7,90,0.00,,,0.00,WUHU216HW,2013-01-20 23:50:00,
2013-01-20 15:55:00,39.1,36.4,29.91,SE,135,0.0,0.0,90,0.00,,,0.00,WUHU216HW,2013-01-20 23:55:00,
2013-01-20 16:00:00,38.9,36.2,29.91,SE,135,0.4,0.4,90,0.00,,,0.00,WUHU216HW,2013-01-21 00:00:00,
2013-01-20 16:05:00,38.7,36.0,29.92,SE,135,0.0,0.4,90,0.00,,,0.00,WUHU216HW,2013-01-21 00:05:00,
2013-01-20 16:10:00,38.5,35.8,29.92,SE,135,0.0,0.0,90,0.00,,,0.00,WUHU216HW,2013-01-21 00:10:00,
2013-01-20 16:15:00,38.5,35.8,29.92,SE,135,0.0,0.0,90,0.00,,,0.00,WUHU216HW,2013-01-21 00:15:00,
2013-01-20 16:20:00,38.3,35.6,29.91,SE,135,0.0,0.0,90,0.00,,,0.00,WUHU216HW,2013-01-21 00:20:00,
2013-01-20 16:25:00,38.2,35.5,29.91,SE,135,0.0,0.0,90,0.00,,,0.00,WUHU216HW,2013-01-21 00:25:00,
2013-01-20 16:30:00,38.0,35.3,29.91,ENE,68,0.0,0.0,90,0.00,,,0.00,WUHU216HW,2013-01-21 00:30:00,
2013-01-20 16:35:00,37.8,35.1,29.91,ENE,68,0.0,0.0,90,0.00,,,0.00,WUHU216HW,2013-01-21 00:35:00,
2013-01-20 16:40:00,37.6,34.9,29.91,ENE,68,0.0,0.0,90,0.00,,,0.00,WUHU216HW,2013-01-21 00:40:00,
2013-01-20 16:45:00,37.4,34.7,29.91,ENE,68,0.0,0.0,90,0.00,,,0.00,WUHU216HW,2013-01-21 00:45:00,
2013-01-20 16:50:00,37.3,34.3,29.91,ENE,68,0.0,0.0,89,0.00,,,0.00,WUHU216HW,2013-01-21 00:50:00,
2013-01-20 16:55:00,37.1,34.1,29.91,ENE,68,0.0,0.0,89,0.00,,,0.00,WUHU216HW,2013-01-21 00:55:00,
2013-01-20 17:00:00,36.9,33.9,29.91,ENE,68,0.0,0.0,89,0.00,,,0.00,WUHU216HW,2013-01-21 01:00:00,
2013-01-20 17:05:00,36.7,33.8,29.91,ENE,68,0.0,0.0,89,0.00,,,0.00,WUHU216HW,2013-01-21 01:05:00,
2013-01-20 17:10:00,36.5,33.6,29.90,ENE,68,0.0,0.0,89,0.00,,,0.00,WUHU216HW,2013-01-21 01:10:00,
2013-01-20 17:15:00,36.4,33.4,29.90,ENE,68,0.0,0.0,89,0.00,,,0.00,WUHU216HW,2013-01-21 01:15:00,
2013-01-20 17:20:00,36.2,33.5,29.90,ENE,68,0.0,0.0,90,0.00,,,0.00,WUHU216HW,2013-01-21 01:20:00,
2013-01-20 17:25:00,36.0,33.3,29.90,ENE,68,0.0,0.0,90,0.00,,,0.00,WUHU216HW,2013-01-21 01:25:00,
2013-01-20 17:30:00,35.8,33.1,29.90,ENE,68,0.0,0.0,90,0.00,,,0.00,WUHU216HW,2013-01-21 01:30:00,
2013-01-20 17:35:00,35.6,32.9,29.90,ENE,68,0.0,0.0,90,0.00,,,0.00,WUHU216HW,2013-01-21 01:35:00,
2013-01-20 17:40:00,35.6,32.9,29.90,ENE,68,0.0,0.0,90,0.00,,,0.00,WUHU216HW,2013-01-21 01:40:00,
2013-01-20 17:45:00,35.5,32.8,29.89,ENE,68,0.0,0.0,90,0.00,,,0.00,WUHU216HW,2013-01-21 01:45:00,
2013-01-20 17:50:00,35.3,32.6,29.89,ENE,68,0.0,0.0,90,0.00,,,0.00,WUHU216HW,2013-01-21 01:50:00,
2013-01-20 17:55:00,35.3,32.6,29.89,ENE,68,0.0,0.0,90,0.00,,,0.00,WUHU216HW,2013-01-21 01:55:00,
2013-01-20 18:00:00,35.1,32.4,29.89,ENE,68,0.0,0.0,90,0.00,,,0.00,WUHU216HW,2013-01-21 02:00:00,
2013-01-20 18:05:00,34.9,32.2,29.89,ENE,68,0.0,0.0,90,0.00,,,0.00,WUHU216HW,2013-01-21 02:05:00,
2013-01-20 18:10:00,34.9,32.2,29.89,ENE,68,0.0,0.0,90,0.00,,,0.00,WUHU216HW,2013-01-21 02:10:00,
2013-01-20 18:15:00,34.7,32.0,29.89,ENE,68,0.0,0.0,90,0.00,,,0.00,WUHU216HW,2013-01-21 02:15:00,
2013-01-20 18:20:00,34.7,32.0,29.89,ENE,68,0.0,0.0,90,0.00,,,0.00,WUHU216HW,2013-01-21 02:20:00,
2013-01-20 18:25:00,34.6,31.9,29.88,SE,135,0.4,0.4,90,0.00,,,0.00,WUHU216HW,2013-01-21 02:25:00,
2013-01-20 18:30:00,34.7,32.3,29.88,South,180,0.2,1.1,91,0.00,,,0.00,WUHU216HW,2013-01-21 02:30:00,
2013-01-20 18:35:00,34.7,32.3,29.88,South,180,0.6,1.1,91,0.00,,,0.00,WUHU216HW,2013-01-21 02:35:00,
2013-01-20 18:40:00,34.9,32.5,29.89,South,180,0.4,1.1,91,0.00,,,0.00,WUHU216HW,2013-01-21 02:40:00,
2013-01-20 18:45:00,34.9,32.8,29.88,South,180,0.0,0.4,92,0.00,,,0.00,WUHU216HW,2013-01-21 02:45:00,
2013-01-20 18:50:00,35.1,32.9,29.88,South,180,0.0,0.4,92,0.00,,,0.00,WUHU216HW,2013-01-21 02:50:00,
2013-01-20 18:55:00,35.1,32.9,29.88,South,180,0.0,0.4,92,0.00,,,0.00,WUHU216HW,2013-01-21 02:55:00,
2013-01-20 19:00:00,35.1,32.9,29.88,South,180,0.0,0.0,92,0.00,,,0.00,WUHU216HW,2013-01-21 03:00:00,
2013-01-20 19:05:00,34.9,32.8,29.88,South,180,0.0,0.0,92,0.00,,,0.00,WUHU216HW,2013-01-21 03:05:00,
2013-01-20 19:10:00,34.9,32.8,29.88,South,180,0.0,0.0,92,0.00,,,0.00,WUHU216HW,2013-01-21 03:10:00,
2013-01-20 19:15:00,34.9,32.8,29.88,SSE,158,0.0,0.4,92,0.00,,,0.00,WUHU216HW,2013-01-21 03:15:00,
2013-01-20 19:20:00,34.9,32.8,29.88,SSE,158,0.4,0.4,92,0.00,,,0.00,WUHU216HW,2013-01-21 03:20:00,
2013-01-20 19:25:00,35.1,32.9,29.88,SSE,158,0.0,0.4,92,0.00,,,0.00,WUHU216HW,2013-01-21 03:25:00,
2013-01-20 19:30:00,35.1,32.9,29.88,SSE,158,0.0,0.0,92,0.00,,,0.00,WUHU216HW,2013-01-21 03:30:00,
2013-01-20 19:35:00,35.1,32.9,29.88,SSE,158,0.0,0.0,92,0.00,,,0.00,WUHU216HW,2013-01-21 03:35:00,
2013-01-20 19:40:00,35.1,32.9,29.88,SSE,158,0.0,0.0,92,0.00,,,0.00,WUHU216HW,2013-01-21 03:40:00,
2013-01-20 19:45:00,35.1,32.9,29.88,SSE,158,0.0,0.0,92,0.00,,,0.00,WUHU216HW,2013-01-21 03:45:00,
2013-01-20 19:50:00,34.9,32.8,29.88,SSE,158,0.0,0.0,92,0.00,,,0.00,WUHU216HW,2013-01-21 03:50:00,
2013-01-20 19:55:00,34.9,32.8,29.88,SSE,158,0.0,0.0,92,0.00,,,0.00,WUHU216HW,2013-01-21 03:55:00,
2013-01-20 20:00:00,34.9,32.8,29.88,SSE,158,0.0,0.0,92,0.00,,,0.00,WUHU216HW,2013-01-21 04:00:00,
2013-01-20 20:05:00,34.9,32.8,29.88,SSE,158,0.0,0.0,92,0.00,,,0.00,WUHU216HW,2013-01-21 04:05:00,
2013-01-20 20:10:00,34.9,32.8,29.88,South,180,0.0,0.0,92,0.00,,,0.00,WUHU216HW,2013-01-21 04:10:00,
2013-01-20 20:15:00,34.9,32.8,29.88,SSE,158,0.0,0.0,92,0.00,,,0.00,WUHU216HW,2013-01-21 04:15:00,
2013-01-20 20:20:00,35.1,32.9,29.88,SSE,158,0.0,0.0,92,0.00,,,0.00,WUHU216HW,2013-01-21 04:20:00,
2013-01-20 20:25:00,35.3,33.1,29.88,SSE,158,0.0,0.0,92,0.00,,,0.00,WUHU216HW,2013-01-21 04:25:00,
2013-01-20 20:30:00,35.5,33.6,29.89,SSE,158,0.0,0.0,93,0.00,,,0.00,WUHU216HW,2013-01-21 04:30:00,
2013-01-20 20:35:00,35.5,33.6,29.89,SSE,158,0.0,0.0,93,0.00,,,0.00,WUHU216HW,2013-01-21 04:35:00,
2013-01-20 20:40:00,35.6,33.8,29.89,SSE,158,0.0,0.0,93,0.00,,,0.00,WUHU216HW,2013-01-21 04:40:00,
2013-01-20 20:45:00,35.6,33.8,29.89,SSE,158,0.0,0.0,93,0.00,,,0.00,WUHU216HW,2013-01-21 04:45:00,
2013-01-20 20:50:00,35.6,33.8,29.89,SSE,158,0.0,0.0,93,0.00,,,0.00,WUHU216HW,2013-01-21 04:50:00,
2013-01-20 20:55:00,35.8,33.9,29.89,SSE,158,0.0,0.0,93,0.00,,,0.00,WUHU216HW,2013-01-21 04:55:00,
2013-01-20 21:01:00,35.8,33.9,29.89,SSE,158,0.0,0.0,93,0.00,,,0.00,WUHU216HW,2013-01-21 05:01:00,
2013-01-20 21:02:00,36.0,34.1,29.89,NNE,23,0.0,0.0,93,0.00,,,0.00,WUHU216HW,2013-01-21 05:02:00,
2013-01-20 21:03:00,36.0,34.1,29.89,NNE,23,0.0,0.0,93,0.00,,,0.00,WUHU216HW,2013-01-21 05:03:00,
2013-01-20 21:08:00,36.0,34.1,29.88,NNE,23,0.0,0.0,93,0.00,,,0.00,WUHU216HW,2013-01-21 05:08:00,
2013-01-20 21:13:00,36.2,34.3,29.88,NNE,23,0.0,0.0,93,0.00,,,0.00,WUHU216HW,2013-01-21 05:13:00,
2013-01-20 21:18:00,36.4,34.5,29.88,NNE,23,0.2,0.2,93,0.00,,,0.00,WUHU216HW,2013-01-21 05:18:00,
2013-01-20 21:23:00,36.4,34.5,29.88,East,90,1.1,1.1,93,0.00,,,0.00,WUHU216HW,2013-01-21 05:23:00,
2013-01-20 21:28:00,36.4,34.5,29.88,East,90,0.0,1.1,93,0.00,,,0.00,WUHU216HW,2013-01-21 05:28:00,
2013-01-20 21:33:00,36.4,34.5,29.88,East,90,0.0,1.1,93,0.00,,,0.00,WUHU216HW,2013-01-21 05:33:00,
2013-01-20 21:38:00,36.4,34.5,29.88,ENE,68,0.2,0.7,93,0.00,,,0.00,WUHU216HW,2013-01-21 05:38:00,
2013-01-20 21:43:00,36.5,34.7,29.88,NNE,23,0.9,1.3,93,0.00,,,0.00,WUHU216HW,2013-01-21 05:43:00,
2013-01-20 21:48:00,36.5,34.7,29.88,NE,45,1.1,2.5,93,0.00,,,0.00,WUHU216HW,2013-01-21 05:48:00,
2013-01-20 21:53:00,36.5,34.7,29.88,NNE,23,1.1,2.5,93,0.00,,,0.00,WUHU216HW,2013-01-21 05:53:00,
2013-01-20 21:58:00,36.5,34.7,29.88,NNE,23,1.8,2.2,93,0.00,,,0.00,WUHU216HW,2013-01-21 05:58:00,
2013-01-20 22:03:00,36.5,34.7,29.88,NNE,23,0.6,2.2,93,0.00,,,0.00,WUHU216HW,2013-01-21 06:03:00,
2013-01-20 22:08:00,36.7,34.8,29.88,NNE,23,2.0,2.0,93,0.00,,,0.00,WUHU216HW,2013-01-21 06:08:00,
2013-01-20 22:13:00,36.7,34.8,29.88,NNE,23,1.1,2.0,93,0.00,,,0.00,WUHU216HW,2013-01-21 06:13:00,
2013-01-20 22:18:00,36.7,34.8,29.88,NNE,23,0.8,2.0,93,0.00,,,0.00,WUHU216HW,2013-01-21 06:18:00,
2013-01-20 22:23:00,36.7,34.8,29.88,NNE,17,1.2,1.6,93,0.00,,,0.00,WUHU216HW,2013-01-21 06:23:00,
2013-01-20 22:28:00,36.7,34.8,29.88,NNE,23,0.7,1.8,93,0.00,,,0.00,WUHU216HW,2013-01-21 06:28:00,
2013-01-20 22:33:00,36.7,34.8,29.88,NNE,18,0.9,2.0,93,0.00,,,0.00,WUHU216HW,2013-01-21 06:33:00,
2013-01-20 22:38:00,36.7,34.8,29.88,North,0,1.8,2.0,93,0.00,,,0.00,WUHU216HW,2013-01-21 06:38:00,
2013-01-20 22:43:00,36.7,34.8,29.88,North,0,0.4,1.8,93,0.00,,,0.00,WUHU216HW,2013-01-21 06:43:00,
2013-01-20 22:48:00,36.7,34.8,29.88,North,0,0.2,1.8,93,0.00,,,0.00,WUHU216HW,2013-01-21 06:48:00,
2013-01-20 22:53:00,36.9,35.0,29.88,North,0,0.0,0.9,93,0.00,,,0.00,WUHU216HW,2013-01-21 06:53:00,
2013-01-20 22:58:00,36.9,35.0,29.88,North,0,2.0,2.0,93,0.00,,,0.00,WUHU216HW,2013-01-21 06:58:00,
2013-01-20 23:03:00,36.9,35.0,29.88,NNE,23,0.6,2.5,93,0.00,,,0.00,WUHU216HW,2013-01-21 07:03:00,
2013-01-20 23:08:00,36.9,35.0,29.88,NNE,23,1.1,2.5,93,0.00,,,0.00,WUHU216HW,2013-01-21 07:08:00,
2013-01-20 23:13:00,36.9,35.0,29.88,North,9,1.0,1.6,93,0.00,,,0.00,WUHU216HW,2013-01-21 07:13:00,
2013-01-20 23:18:00,36.7,34.8,29.88,NNE,16,0.8,2.0,93,0.00,,,0.00,WUHU216HW,2013-01-21 07:18:00,
2013-01-20 23:23:00,36.7,34.8,29.88,North,7,0.6,2.0,93,0.00,,,0.00,WUHU216HW,2013-01-21 07:23:00,
2013-01-20 23:28:00,36.5,34.7,29.88,NW,315,0.0,1.8,93,0.00,,,0.00,WUHU216HW,2013-01-21 07:28:00,
2013-01-20 23:33:00,36.5,34.7,29.88,NNW,338,0.7,1.8,93,0.00,,,0.00,WUHU216HW,2013-01-21 07:33:00,
2013-01-20 23:38:00,36.5,34.9,29.88,ENE,68,0.3,0.7,94,0.00,,,0.00,WUHU216HW,2013-01-21 07:38:00,
2013-01-20 23:43:00,36.5,34.9,29.88,North,0,0.2,0.9,94,0.00,,,0.00,WUHU216HW,2013-01-21 07:43:00,
2013-01-20 23:48:00,36.5,34.9,29.88,North,0,0.0,0.9,94,0.00,,,0.00,WUHU216HW,2013-01-21 07:48:00,
2013-01-20 23:53:00,36.7,35.1,29.88,North,0,0.0,0.9,94,0.00,,,0.00,WUHU216HW,2013-01-21 07:53:00,
2013-01-20 23:58:00,36.7,34.8,29.88,NNE,23,0.4,0.4,93,0.00,,,0.00,WUHU216HW,2013-01-21 07:58:00,